• Em Portugal
  • Lista de países
  • Para 7 dias
  • Temperatura da água
  • Mapas de satélite
  • Mapa do tempo
  • Widgets de tempo
  • user-avatar
    Iniciar Sessão

    Previsão horária em Ahwaz

    Hoje, 24 Janeiro, Quarta-feira

    Tempo Temperatura Precipitação Vento Pressão Humidade
    00:00 +15°C° 0 mm 4 m/s 759 mmHg 68%
    01:00 +16°C° 0 mm 3 m/s 760 mmHg 70%
    02:00 +16°C° 0 mm 3 m/s 760 mmHg 72%
    03:00 +16°C° 0 mm 3 m/s 760 mmHg 75%
    04:00 +16°C° 0 mm 3 m/s 760 mmHg 77%
    05:00 +14°C° 0 mm 3 m/s 760 mmHg 79%
    06:00 +14°C° 0 mm 3 m/s 760 mmHg 81%
    07:00 +16°C° 0 mm 3 m/s 760 mmHg 76%
    08:00 +17°C° 0 mm 3 m/s 760 mmHg 70%
    09:00 +19°C° 0 mm 3 m/s 761 mmHg 65%
    10:00 +20°C° 0 mm 3 m/s 760 mmHg 57%
    11:00 +21°C° 0 mm 2 m/s 760 mmHg 49%
    12:00 +24°C° 0 mm 2 m/s 760 mmHg 41%
    13:00 +24°C° 0 mm 2 m/s 760 mmHg 38%
    14:00 +25°C° 0 mm 2 m/s 760 mmHg 34%
    15:00 +26°C° 0 mm 2 m/s 759 mmHg 31%
    16:00 +25°C° 0 mm 1 m/s 760 mmHg 34%
    17:00 +24°C° 0 mm 1 m/s 760 mmHg 36%
    18:00 +23°C° 0 mm 1 m/s 760 mmHg 38%
    19:00 +22°C° 0 mm 1 m/s 760 mmHg 40%
    20:00 +21°C° 0 mm 2 m/s 760 mmHg 41%
    21:00 +20°C° 0 mm 2 m/s 761 mmHg 43%
    22:00 +20°C° 0 mm 2 m/s 761 mmHg 45%
    23:00 +19°C° 0 mm 2 m/s 761 mmHg 46%

    Amanhã, 25 Janeiro, Quinta-feira

    Tempo Temperatura Precipitação Vento Pressão Humidade
    00:00 +19°C° 0 mm 2 m/s 761 mmHg 48%
    01:00 +19°C° 0 mm 1 m/s 761 mmHg 50%
    02:00 +18°C° 0 mm 1 m/s 760 mmHg 51%
    03:00 +18°C° 0 mm 1 m/s 760 mmHg 53%
    04:00 +18°C° 0 mm 1 m/s 760 mmHg 53%
    05:00 +16°C° 0 mm 1 m/s 760 mmHg 54%
    06:00 +16°C° 0 mm 1 m/s 760 mmHg 55%
    07:00 +19°C° 0 mm 1 m/s 760 mmHg 51%
    08:00 +19°C° 0 mm 2 m/s 760 mmHg 46%
    09:00 +21°C° 0 mm 2 m/s 760 mmHg 41%
    10:00 +23°C° 0 mm 2 m/s 760 mmHg 37%
    11:00 +25°C° 0 mm 2 m/s 760 mmHg 32%
    12:00 +26°C° 0 mm 3 m/s 760 mmHg 27%
    13:00 +27°C° 0 mm 3 m/s 759 mmHg 24%
    14:00 +27°C° 0 mm 3 m/s 759 mmHg 22%
    15:00 +28°C° 0 mm 4 m/s 758 mmHg 20%
    16:00 +27°C° 0 mm 4 m/s 758 mmHg 21%
    17:00 +26°C° 0 mm 4 m/s 758 mmHg 23%
    18:00 +25°C° 0 mm 4 m/s 758 mmHg 24%
    19:00 +25°C° 0 mm 4 m/s 758 mmHg 25%
    20:00 +23°C° 0 mm 4 m/s 758 mmHg 26%
    21:00 +23°C° 0 mm 4 m/s 758 mmHg 27%
    22:00 +22°C° 0 mm 4 m/s 758 mmHg 29%
    23:00 +21°C° 0 mm 4 m/s 758 mmHg 31%

    Depois de amanhã, 26 Janeiro, Sexta-feira

    Tempo Temperatura Precipitação Vento Pressão Humidade
    00:00 +21°C° 0 mm 4 m/s 758 mmHg 33%
    01:00 +21°C° 0 mm 4 m/s 758 mmHg 35%
    02:00 +20°C° 0 mm 4 m/s 757 mmHg 36%
    03:00 +20°C° 0 mm 4 m/s 757 mmHg 38%
    04:00 +20°C° 0 mm 3 m/s 757 mmHg 41%
    05:00 +19°C° 0 mm 3 m/s 758 mmHg 44%
    06:00 +19°C° 0 mm 3 m/s 758 mmHg 46%
    07:00 +20°C° 0 mm 3 m/s 758 mmHg 46%
    08:00 +21°C° 0 mm 4 m/s 758 mmHg 46%
    09:00 +22°C° 0 mm 4 m/s 759 mmHg 46%
    10:00 +23°C° 0 mm 4 m/s 759 mmHg 42%
    11:00 +25°C° 0 mm 4 m/s 758 mmHg 37%
    12:00 +26°C° 0 mm 3 m/s 758 mmHg 33%
    13:00 +26°C° 0 mm 3 m/s 758 mmHg 31%
    14:00 +27°C° 0 mm 3 m/s 757 mmHg 29%
    15:00 +27°C° 0 mm 3 m/s 757 mmHg 27%
    16:00 +26°C° 0 mm 3 m/s 757 mmHg 28%
    17:00 +25°C° 0 mm 3 m/s 757 mmHg 30%
    18:00 +24°C° 0 mm 2 m/s 757 mmHg 32%
    19:00 +24°C° 0 mm 2 m/s 758 mmHg 34%
    20:00 +22°C° 0 mm 3 m/s 758 mmHg 36%
    21:00 +21°C° 0 mm 3 m/s 759 mmHg 38%
    22:00 +20°C° 0 mm 3 m/s 759 mmHg 39%
    23:00 +20°C° 0 mm 3 m/s 759 mmHg 40%

    27 Janeiro, Sábado

    Tempo Temperatura Precipitação Vento Pressão Humidade
    00:00 +19°C° 0 mm 3 m/s 759 mmHg 40%
    01:00 +19°C° 0 mm 3 m/s 759 mmHg 40%
    02:00 +18°C° 0 mm 3 m/s 759 mmHg 40%
    03:00 +18°C° 0 mm 3 m/s 758 mmHg 40%
    04:00 +17°C° 0 mm 3 m/s 759 mmHg 40%
    05:00 +17°C° 0 mm 2 m/s 759 mmHg 41%
    06:00 +16°C° 0 mm 2 m/s 759 mmHg 42%
    07:00 +17°C° 0 mm 3 m/s 759 mmHg 39%
    08:00 +18°C° 0 mm 4 m/s 760 mmHg 37%
    09:00 +19°C° 0 mm 5 m/s 760 mmHg 35%
    10:00 +19°C° 0 mm 6 m/s 760 mmHg 35%
    11:00 +18°C° 0 mm 7 m/s 760 mmHg 35%
    12:00 +18°C° 0 mm 8 m/s 760 mmHg 36%
    13:00 +18°C° 0 mm 7 m/s 760 mmHg 35%
    14:00 +18°C° 0 mm 7 m/s 759 mmHg 34%
    15:00 +20°C° 0 mm 7 m/s 759 mmHg 33%
    16:00 +19°C° 0 mm 6 m/s 759 mmHg 34%
    17:00 +17°C° 0 mm 6 m/s 759 mmHg 35%
    18:00 +17°C° 0 mm 5 m/s 760 mmHg 36%
    19:00 +17°C° 0 mm 4 m/s 760 mmHg 37%
    20:00 +17°C° 0 mm 4 m/s 761 mmHg 38%
    21:00 +15°C° 0 mm 4 m/s 761 mmHg 40%
    22:00 +14°C° 0 mm 3 m/s 761 mmHg 40%
    23:00 +14°C° 0 mm 3 m/s 761 mmHg 40%

    28 Janeiro, Domingo

    Tempo Temperatura Precipitação Vento Pressão Humidade
    00:00 +13°C° 0 mm 3 m/s 761 mmHg 41%
    01:00 +13°C° 0 mm 3 m/s 761 mmHg 41%
    02:00 +13°C° 0 mm 3 m/s 761 mmHg 41%
    03:00 +13°C° 0 mm 2 m/s 761 mmHg 41%
    04:00 +12°C° 0 mm 3 m/s 761 mmHg 41%
    05:00 +12°C° 0 mm 3 m/s 761 mmHg 42%
    06:00 +11°C° 0 mm 3 m/s 761 mmHg 43%
    07:00 +12°C° 0 mm 3 m/s 762 mmHg 42%
    08:00 +13°C° 0 mm 4 m/s 762 mmHg 41%
    09:00 +14°C° 0 mm 4 m/s 763 mmHg 40%
    10:00 +15°C° 0 mm 4 m/s 762 mmHg 38%
    11:00 +17°C° 0 mm 4 m/s 762 mmHg 37%
    12:00 +17°C° 0 mm 5 m/s 762 mmHg 36%
    13:00 +17°C° 0 mm 5 m/s 761 mmHg 33%
    14:00 +19°C° 0 mm 4 m/s 761 mmHg 31%
    15:00 +19°C° 0 mm 4 m/s 760 mmHg 28%
    16:00 +19°C° 0 mm 4 m/s 760 mmHg 28%
    17:00 +18°C° 0 mm 4 m/s 761 mmHg 28%
    18:00 +18°C° 0 mm 3 m/s 761 mmHg 27%
    19:00 +17°C° 0 mm 3 m/s 761 mmHg 28%
    20:00 +17°C° 0 mm 3 m/s 761 mmHg 29%
    21:00 +15°C° 0 mm 4 m/s 761 mmHg 30%
    22:00 +15°C° 0 mm 4 m/s 761 mmHg 31%
    23:00 +14°C° 0 mm 4 m/s 761 mmHg 32%

    29 Janeiro, Segunda-feira

    Tempo Temperatura Precipitação Vento Pressão Humidade
    00:00 +14°C° 0 mm 4 m/s 761 mmHg 33%
    01:00 +13°C° 0 mm 4 m/s 761 mmHg 35%
    02:00 +13°C° 0 mm 4 m/s 761 mmHg 37%
    03:00 +12°C° 0 mm 3 m/s 761 mmHg 38%
    04:00 +12°C° 0 mm 3 m/s 761 mmHg 39%
    05:00 +11°C° 0 mm 3 m/s 762 mmHg 40%
    06:00 +11°C° 0 mm 3 m/s 762 mmHg 40%
    07:00 +12°C° 0 mm 3 m/s 762 mmHg 37%
    08:00 +13°C° 0 mm 3 m/s 762 mmHg 34%
    09:00 +14°C° 0 mm 3 m/s 763 mmHg 32%
    10:00 +16°C° 0 mm 3 m/s 762 mmHg 29%
    11:00 +18°C° 0 mm 3 m/s 762 mmHg 26%
    12:00 +19°C° 0 mm 3 m/s 762 mmHg 23%
    13:00 +20°C° 0 mm 4 m/s 761 mmHg 21%
    14:00 +20°C° 0 mm 4 m/s 761 mmHg 20%
    15:00 +20°C° 0 mm 4 m/s 761 mmHg 18%
    16:00 +20°C° 0 mm 4 m/s 761 mmHg 19%
    17:00 +19°C° 0 mm 3 m/s 761 mmHg 20%
    18:00 +18°C° 0 mm 3 m/s 761 mmHg 21%
    19:00 +17°C° 0 mm 3 m/s 761 mmHg 21%
    20:00 +17°C° 0 mm 3 m/s 762 mmHg 22%
    21:00 +16°C° 0 mm 3 m/s 762 mmHg 22%
    22:00 +16°C° 0 mm 3 m/s 762 mmHg 23%
    23:00 +14°C° 0 mm 4 m/s 762 mmHg 23%
    Mostrar mais